Time,TemperatureF,DewpointF,PressureIn,WindDirection,WindDirectionDegrees,WindSpeedMPH,WindSpeedGustMPH,Humidity,HourlyPrecipIn,Conditions,Clouds,dailyrainin,SoftwareType,DateUTC
2013-04-09 00:02:00,72.0,66.9,29.96,SE,135,4.0,4.0,84,0.00,,,0.00,meteohub,2013-04-09 05:02:00,
2013-04-09 00:07:00,72.0,66.9,29.96,SE,135,4.0,4.0,84,0.00,,,0.00,meteohub,2013-04-09 05:07:00,
2013-04-09 00:17:00,72.3,67.3,29.96,East,90,4.0,8.0,84,0.00,,,0.00,meteohub,2013-04-09 05:17:00,
2013-04-09 00:22:00,72.5,67.5,29.95,East,90,3.0,11.0,84,0.00,,,0.00,meteohub,2013-04-09 05:22:00,
2013-04-09 00:27:00,72.5,67.5,29.95,East,90,8.0,11.0,84,0.00,,,0.00,meteohub,2013-04-09 05:27:00,
2013-04-09 00:32:00,72.7,67.3,29.95,SE,135,5.0,11.0,83,0.00,,,0.00,meteohub,2013-04-09 05:32:00,
2013-04-09 00:37:00,72.7,67.3,29.94,NE,45,5.0,8.0,83,0.00,,,0.00,meteohub,2013-04-09 05:37:00,
2013-04-09 00:42:00,72.7,67.3,29.95,East,90,4.0,8.0,83,0.00,,,0.00,meteohub,2013-04-09 05:42:00,
2013-04-09 00:52:00,72.9,67.5,29.94,SE,135,5.0,8.0,83,0.00,,,0.00,meteohub,2013-04-09 05:52:00,
2013-04-09 00:57:00,72.9,67.5,29.94,SE,135,4.0,8.0,83,0.00,,,0.00,meteohub,2013-04-09 05:57:00,
2013-04-09 01:07:00,72.9,67.5,29.94,ESE,113,8.0,8.0,83,0.00,,,0.00,meteohub,2013-04-09 06:07:00,
2013-04-09 01:12:00,72.9,67.5,29.93,East,90,6.0,8.0,83,0.00,,,0.00,meteohub,2013-04-09 06:12:00,
2013-04-09 01:17:00,72.9,67.5,29.93,SE,135,5.0,11.0,83,0.00,,,0.00,meteohub,2013-04-09 06:17:00,
2013-04-09 01:22:00,72.9,67.5,29.92,SE,135,7.0,11.0,83,0.00,,,0.00,meteohub,2013-04-09 06:22:00,
2013-04-09 01:27:00,72.9,67.5,29.92,SE,135,4.0,12.0,83,0.00,,,0.00,meteohub,2013-04-09 06:27:00,
2013-04-09 01:32:00,72.9,67.5,29.92,SE,135,8.0,12.0,83,0.00,,,0.00,meteohub,2013-04-09 06:32:00,
2013-04-09 01:42:00,72.9,67.5,29.92,ESE,113,8.0,10.0,83,0.00,,,0.00,meteohub,2013-04-09 06:42:00,
2013-04-09 01:47:00,72.9,67.5,29.92,SE,135,3.0,10.0,83,0.00,,,0.00,meteohub,2013-04-09 06:47:00,
2013-04-09 01:57:00,72.9,67.8,29.92,SE,135,4.0,8.0,84,0.00,,,0.00,meteohub,2013-04-09 06:57:00,
2013-04-09 02:02:00,72.7,67.6,29.91,East,90,5.0,7.0,84,0.00,,,0.00,meteohub,2013-04-09 07:02:00,
2013-04-09 02:07:00,72.7,67.6,29.92,East,90,5.0,6.0,84,0.00,,,0.00,meteohub,2013-04-09 07:07:00,
2013-04-09 02:12:00,72.9,67.8,29.92,East,90,4.0,6.0,84,0.00,,,0.00,meteohub,2013-04-09 07:12:00,
2013-04-09 02:22:00,73.2,68.4,29.92,East,90,4.0,8.0,85,0.00,,,0.00,meteohub,2013-04-09 07:22:00,
2013-04-09 02:27:00,73.2,68.4,29.92,South,180,7.0,8.0,85,0.00,,,0.00,meteohub,2013-04-09 07:27:00,
2013-04-09 02:32:00,73.4,68.5,29.91,SSE,158,11.0,11.0,85,0.00,,,0.00,meteohub,2013-04-09 07:32:00,
2013-04-09 02:37:00,73.4,68.5,29.91,SE,135,9.0,11.0,85,0.00,,,0.00,meteohub,2013-04-09 07:37:00,
2013-04-09 02:47:00,73.4,68.5,29.90,SE,135,6.0,14.0,85,0.00,,,0.00,meteohub,2013-04-09 07:47:00,
2013-04-09 02:52:00,73.4,68.5,29.91,East,90,6.0,14.0,85,0.00,,,0.00,meteohub,2013-04-09 07:52:00,
2013-04-09 02:57:00,73.4,68.5,29.90,East,90,5.0,11.0,85,0.00,,,0.00,meteohub,2013-04-09 07:57:00,
2013-04-09 03:02:00,73.4,68.5,29.90,East,90,8.0,11.0,85,0.00,,,0.00,meteohub,2013-04-09 08:02:00,
2013-04-09 03:12:00,73.2,68.7,29.90,East,90,10.0,10.0,86,0.00,,,0.00,meteohub,2013-04-09 08:12:00,
2013-04-09 03:22:00,73.0,68.5,29.91,SE,135,6.0,10.0,86,0.00,,,0.00,meteohub,2013-04-09 08:22:00,
2013-04-09 03:27:00,73.2,68.7,29.91,East,90,6.0,10.0,86,0.00,,,0.00,meteohub,2013-04-09 08:27:00,
2013-04-09 03:32:00,73.0,68.5,29.91,SE,135,5.0,9.0,86,0.00,,,0.00,meteohub,2013-04-09 08:32:00,
2013-04-09 03:37:00,73.0,68.5,29.91,ESE,113,3.0,9.0,86,0.00,,,0.00,meteohub,2013-04-09 08:37:00,
2013-04-09 03:42:00,73.0,68.9,29.90,SE,135,5.0,8.0,87,0.00,,,0.00,meteohub,2013-04-09 08:42:00,
2013-04-09 03:47:00,73.2,69.1,29.90,East,90,4.0,8.0,87,0.00,,,0.00,meteohub,2013-04-09 08:47:00,
2013-04-09 03:57:00,73.0,68.9,29.90,SE,135,4.0,6.0,87,0.00,,,0.00,meteohub,2013-04-09 08:57:00,
2013-04-09 04:02:00,73.2,69.1,29.90,East,90,5.0,10.0,87,0.00,,,0.00,meteohub,2013-04-09 09:02:00,
2013-04-09 04:07:00,73.2,69.1,29.90,East,90,5.0,10.0,87,0.00,,,0.00,meteohub,2013-04-09 09:07:00,
2013-04-09 04:12:00,73.0,68.9,29.90,East,90,7.0,10.0,87,0.00,,,0.00,meteohub,2013-04-09 09:12:00,
2013-04-09 04:17:00,73.2,69.1,29.91,South,180,4.0,7.0,87,0.00,,,0.00,meteohub,2013-04-09 09:17:00,
2013-04-09 04:27:00,73.0,69.3,29.90,NE,45,7.0,10.0,88,0.00,,,0.00,meteohub,2013-04-09 09:27:00,
2013-04-09 04:37:00,73.0,68.9,29.91,SE,135,2.0,12.0,87,0.00,,,0.00,meteohub,2013-04-09 09:37:00,
2013-04-09 04:42:00,73.0,69.3,29.90,SE,135,5.0,12.0,88,0.00,,,0.00,meteohub,2013-04-09 09:42:00,
2013-04-09 04:52:00,73.0,69.3,29.90,SE,135,4.0,8.0,88,0.00,,,0.00,meteohub,2013-04-09 09:52:00,
2013-04-09 04:57:00,73.0,69.3,29.91,East,90,5.0,8.0,88,0.00,,,0.00,meteohub,2013-04-09 09:57:00,
2013-04-09 05:02:00,73.0,69.3,29.90,SE,135,4.0,7.0,88,0.00,,,0.00,meteohub,2013-04-09 10:02:00,
2013-04-09 05:12:00,72.9,69.4,29.91,SE,135,3.0,5.0,89,0.00,,,0.00,meteohub,2013-04-09 10:12:00,
2013-04-09 05:17:00,72.7,69.3,29.92,East,90,7.0,9.0,89,0.00,,,0.00,meteohub,2013-04-09 10:17:00,
2013-04-09 05:22:00,72.9,69.4,29.92,SE,135,3.0,9.0,89,0.00,,,0.00,meteohub,2013-04-09 10:22:00,
2013-04-09 05:32:00,72.9,69.4,29.92,SE,135,4.0,7.0,89,0.00,,,0.00,meteohub,2013-04-09 10:32:00,
2013-04-09 05:37:00,72.9,69.4,29.91,East,90,4.0,6.0,89,0.00,,,0.00,meteohub,2013-04-09 10:37:00,
2013-04-09 05:47:00,72.7,69.6,29.92,East,90,4.0,5.0,90,0.00,,,0.00,meteohub,2013-04-09 10:47:00,
2013-04-09 05:57:00,72.5,69.4,29.93,SSE,158,2.0,5.0,90,0.00,,,0.00,meteohub,2013-04-09 10:57:00,
2013-04-09 06:02:00,72.5,69.4,29.93,SE,135,3.0,4.0,90,0.00,,,0.00,meteohub,2013-04-09 11:02:00,
2013-04-09 06:12:00,72.5,69.8,29.93,SE,135,4.0,4.0,91,0.00,,,0.00,meteohub,2013-04-09 11:12:00,
2013-04-09 06:22:00,72.5,69.8,29.94,SE,135,4.0,4.0,91,0.00,,,0.00,meteohub,2013-04-09 11:22:00,
2013-04-09 06:27:00,72.7,70.0,29.94,East,90,2.0,4.0,91,0.00,,,0.00,meteohub,2013-04-09 11:27:00,
2013-04-09 06:32:00,72.5,69.8,29.94,SE,135,5.0,5.0,91,0.00,,,0.00,meteohub,2013-04-09 11:32:00,
2013-04-09 06:37:00,72.7,70.0,29.94,SE,135,3.0,5.0,91,0.00,,,0.00,meteohub,2013-04-09 11:37:00,
2013-04-09 06:42:00,72.7,70.0,29.94,East,90,3.0,5.0,91,0.00,,,0.00,meteohub,2013-04-09 11:42:00,
2013-04-09 06:52:00,72.7,70.0,29.95,SE,135,7.0,7.0,91,0.00,,,0.00,meteohub,2013-04-09 11:52:00,
2013-04-09 06:57:00,72.7,70.0,29.94,East,90,2.0,7.0,91,0.00,,,0.00,meteohub,2013-04-09 11:57:00,
2013-04-09 07:07:00,72.7,70.0,29.94,East,90,4.0,7.0,91,0.00,,,0.00,meteohub,2013-04-09 12:07:00,
2013-04-09 07:12:00,72.5,69.8,29.95,East,90,2.0,4.0,91,0.00,,,0.00,meteohub,2013-04-09 12:12:00,
2013-04-09 07:17:00,72.7,70.0,29.95,East,90,4.0,4.0,91,0.00,,,0.00,meteohub,2013-04-09 12:17:00,
2013-04-09 07:22:00,72.5,69.8,29.95,NE,45,3.0,4.0,91,0.00,,,0.00,meteohub,2013-04-09 12:22:00,
2013-04-09 07:27:00,72.7,70.0,29.95,East,90,2.0,5.0,91,0.00,,,0.00,meteohub,2013-04-09 12:27:00,
2013-04-09 07:32:00,72.9,70.2,29.95,East,90,4.0,5.0,91,0.00,,,0.00,meteohub,2013-04-09 12:32:00,
2013-04-09 07:42:00,73.2,70.5,29.95,East,90,4.0,4.0,91,0.00,,,0.00,meteohub,2013-04-09 12:42:00,
2013-04-09 07:52:00,73.4,70.3,29.95,SE,135,4.0,5.0,90,0.00,,,0.00,meteohub,2013-04-09 12:52:00,
2013-04-09 07:57:00,73.6,70.5,29.95,East,90,2.0,8.0,90,0.00,,,0.00,meteohub,2013-04-09 12:57:00,
2013-04-09 08:02:00,73.8,70.7,29.96,SE,135,3.0,8.0,90,0.00,,,0.00,meteohub,2013-04-09 13:02:00,
2013-04-09 08:07:00,73.8,70.7,29.96,SE,135,3.0,8.0,90,0.00,,,0.00,meteohub,2013-04-09 13:07:00,
2013-04-09 08:12:00,74.1,70.7,29.96,SE,135,4.0,6.0,89,0.00,,,0.00,meteohub,2013-04-09 13:12:00,
2013-04-09 08:17:00,74.3,70.5,29.96,SE,135,4.0,6.0,88,0.00,,,0.00,meteohub,2013-04-09 13:17:00,
2013-04-09 08:22:00,74.3,70.5,29.96,ESE,113,3.0,6.0,88,0.00,,,0.00,meteohub,2013-04-09 13:22:00,
2013-04-09 08:32:00,74.7,70.9,29.96,SE,135,5.0,7.0,88,0.00,,,0.00,meteohub,2013-04-09 13:32:00,
2013-04-09 08:37:00,74.7,70.5,29.96,SE,135,4.0,8.0,87,0.00,,,0.00,meteohub,2013-04-09 13:37:00,
2013-04-09 08:42:00,74.8,70.7,29.96,SE,135,4.0,8.0,87,0.00,,,0.00,meteohub,2013-04-09 13:42:00,
2013-04-09 08:47:00,74.8,70.7,29.96,ESE,113,8.0,8.0,87,0.00,,,0.00,meteohub,2013-04-09 13:47:00,
2013-04-09 08:57:00,75.2,70.7,29.96,SE,135,5.0,8.0,86,0.00,,,0.00,meteohub,2013-04-09 13:57:00,
2013-04-09 09:02:00,75.4,70.9,29.97,East,90,4.0,9.0,86,0.00,,,0.00,meteohub,2013-04-09 14:02:00,
2013-04-09 09:12:00,75.4,70.9,29.97,East,90,3.0,9.0,86,0.00,,,0.00,meteohub,2013-04-09 14:12:00,
2013-04-09 09:17:00,75.7,71.2,29.97,NE,45,6.0,6.0,86,0.00,,,0.00,meteohub,2013-04-09 14:17:00,
2013-04-09 09:27:00,75.9,71.1,29.96,SE,135,4.0,9.0,85,0.00,,,0.00,meteohub,2013-04-09 14:27:00,
2013-04-09 09:37:00,77.4,72.1,29.96,NE,45,8.0,9.0,84,0.00,,,0.00,meteohub,2013-04-09 14:37:00,
2013-04-09 09:42:00,77.5,71.2,29.97,SE,135,5.0,8.0,81,0.00,,,0.00,meteohub,2013-04-09 14:42:00,
2013-04-09 09:47:00,78.1,71.4,29.96,SE,135,9.0,11.0,80,0.00,,,0.00,meteohub,2013-04-09 14:47:00,
2013-04-09 09:52:00,78.4,71.1,29.97,SE,135,8.0,11.0,78,0.00,,,0.00,meteohub,2013-04-09 14:52:00,
2013-04-09 10:02:00,78.6,70.9,29.97,South,180,5.0,11.0,77,0.00,,,0.00,meteohub,2013-04-09 15:02:00,
2013-04-09 10:12:00,79.2,70.9,29.97,East,90,5.0,12.0,76,0.00,,,0.00,meteohub,2013-04-09 15:12:00,
2013-04-09 10:17:00,79.2,70.5,29.97,SE,135,9.0,15.0,75,0.00,,,0.00,meteohub,2013-04-09 15:17:00,
2013-04-09 10:22:00,79.7,70.7,29.98,South,180,11.0,15.0,74,0.00,,,0.00,meteohub,2013-04-09 15:22:00,
2013-04-09 10:27:00,79.9,70.5,29.98,South,180,12.0,15.0,73,0.00,,,0.00,meteohub,2013-04-09 15:27:00,
2013-04-09 10:32:00,79.7,70.3,29.98,SSE,158,7.0,13.0,73,0.00,,,0.00,meteohub,2013-04-09 15:32:00,
2013-04-09 10:37:00,79.7,70.3,29.98,South,180,6.0,13.0,73,0.00,,,0.00,meteohub,2013-04-09 15:37:00,
2013-04-09 10:42:00,79.9,70.5,29.98,SE,135,9.0,13.0,73,0.00,,,0.00,meteohub,2013-04-09 15:42:00,
2013-04-09 10:47:00,80.1,70.2,29.98,East,90,9.0,13.0,72,0.00,,,0.00,meteohub,2013-04-09 15:47:00,
2013-04-09 10:52:00,80.2,70.0,29.98,SSE,158,8.0,13.0,71,0.00,,,0.00,meteohub,2013-04-09 15:52:00,
2013-04-09 10:57:00,80.1,69.8,29.99,South,180,5.0,11.0,71,0.00,,,0.00,meteohub,2013-04-09 15:57:00,
2013-04-09 11:02:00,80.1,69.8,29.99,South,180,5.0,15.0,71,0.00,,,0.00,meteohub,2013-04-09 16:02:00,
2013-04-09 11:07:00,80.1,69.8,29.99,South,180,5.0,15.0,71,0.00,,,0.00,meteohub,2013-04-09 16:07:00,
2013-04-09 11:17:00,80.4,69.8,29.99,SE,135,10.0,15.0,70,0.00,,,0.00,meteohub,2013-04-09 16:17:00,
2013-04-09 11:22:00,80.6,70.0,29.99,SE,135,10.0,15.0,70,0.00,,,0.00,meteohub,2013-04-09 16:22:00,
2013-04-09 11:27:00,80.6,69.4,29.99,South,180,8.0,13.0,69,0.00,,,0.00,meteohub,2013-04-09 16:27:00,
2013-04-09 11:37:00,80.2,69.6,29.99,SE,135,11.0,15.0,70,0.00,,,0.00,meteohub,2013-04-09 16:37:00,
2013-04-09 11:42:00,80.2,69.6,29.99,SE,135,8.0,15.0,70,0.00,,,0.00,meteohub,2013-04-09 16:42:00,
2013-04-09 11:52:00,80.6,69.1,29.99,South,180,10.0,16.0,68,0.00,,,0.00,meteohub,2013-04-09 16:52:00,
2013-04-09 11:57:00,80.8,68.7,29.98,South,180,11.0,16.0,67,0.00,,,0.00,meteohub,2013-04-09 16:57:00,
2013-04-09 12:02:00,80.8,68.7,29.98,South,180,7.0,13.0,67,0.00,,,0.00,meteohub,2013-04-09 17:02:00,
2013-04-09 12:07:00,80.8,68.7,29.99,South,180,7.0,13.0,67,0.00,,,0.00,meteohub,2013-04-09 17:07:00,
2013-04-09 12:12:00,81.9,69.4,29.98,SE,135,7.0,13.0,66,0.00,,,0.00,meteohub,2013-04-09 17:12:00,
2013-04-09 12:22:00,82.8,69.3,29.98,SE,135,9.0,11.0,64,0.00,,,0.00,meteohub,2013-04-09 17:22:00,
2013-04-09 12:27:00,83.1,69.3,29.98,SSW,203,9.0,14.0,63,0.00,,,0.00,meteohub,2013-04-09 17:27:00,
2013-04-09 12:37:00,83.3,68.4,29.98,South,180,8.0,14.0,61,0.00,,,0.00,meteohub,2013-04-09 17:37:00,
2013-04-09 12:42:00,83.3,68.0,29.97,SE,135,9.0,13.0,60,0.00,,,0.00,meteohub,2013-04-09 17:42:00,
2013-04-09 12:47:00,83.8,68.5,29.97,SE,135,5.0,14.0,60,0.00,,,0.00,meteohub,2013-04-09 17:47:00,
2013-04-09 12:52:00,83.7,68.4,29.97,SE,135,4.0,14.0,60,0.00,,,0.00,meteohub,2013-04-09 17:52:00,
2013-04-09 12:57:00,83.8,68.5,29.97,SE,135,7.0,11.0,60,0.00,,,0.00,meteohub,2013-04-09 17:57:00,
2013-04-09 13:02:00,83.7,67.8,29.97,SSE,158,11.0,11.0,59,0.00,,,0.00,meteohub,2013-04-09 18:02:00,
2013-04-09 13:07:00,83.7,67.8,29.96,SSE,158,11.0,11.0,59,0.00,,,0.00,meteohub,2013-04-09 18:07:00,
2013-04-09 13:12:00,84.2,67.8,29.96,East,90,8.0,11.0,58,0.00,,,0.00,meteohub,2013-04-09 18:12:00,
2013-04-09 13:22:00,83.8,68.0,29.96,SE,135,8.0,11.0,59,0.00,,,0.00,meteohub,2013-04-09 18:22:00,
2013-04-09 13:27:00,83.8,68.0,29.95,SE,135,8.0,11.0,59,0.00,,,0.00,meteohub,2013-04-09 18:27:00,
2013-04-09 13:32:00,83.8,68.0,29.95,ESE,113,4.0,11.0,59,0.00,,,0.00,meteohub,2013-04-09 18:32:00,
2013-04-09 13:37:00,83.8,67.5,29.95,South,180,11.0,13.0,58,0.00,,,0.00,meteohub,2013-04-09 18:37:00,
2013-04-09 13:42:00,83.8,67.5,29.95,SE,135,15.0,15.0,58,0.00,,,0.00,meteohub,2013-04-09 18:42:00,
2013-04-09 13:47:00,83.8,67.5,29.95,SE,135,12.0,15.0,58,0.00,,,0.00,meteohub,2013-04-09 18:47:00,
2013-04-09 13:52:00,83.5,67.1,29.94,South,180,8.0,15.0,58,0.00,,,0.00,meteohub,2013-04-09 18:52:00,
2013-04-09 13:57:00,83.7,67.3,29.94,SE,135,7.0,16.0,58,0.00,,,0.00,meteohub,2013-04-09 18:57:00,
2013-04-09 14:07:00,83.8,67.5,29.94,East,90,7.0,14.0,58,0.00,,,0.00,meteohub,2013-04-09 19:07:00,
2013-04-09 14:17:00,84.9,66.9,29.94,SSW,203,12.0,15.0,55,0.00,,,0.00,meteohub,2013-04-09 19:17:00,
2013-04-09 14:22:00,85.1,67.6,29.94,South,180,8.0,15.0,56,0.00,,,0.00,meteohub,2013-04-09 19:22:00,
2013-04-09 14:32:00,84.7,66.7,29.94,SE,135,8.0,16.0,55,0.00,,,0.00,meteohub,2013-04-09 19:32:00,
2013-04-09 14:37:00,84.4,66.9,29.94,SE,135,10.0,16.0,56,0.00,,,0.00,meteohub,2013-04-09 19:37:00,
2013-04-09 14:47:00,84.7,66.2,29.94,SE,135,12.0,16.0,54,0.00,,,0.00,meteohub,2013-04-09 19:47:00,
2013-04-09 14:52:00,84.6,66.6,29.94,SE,135,10.0,15.0,55,0.00,,,0.00,meteohub,2013-04-09 19:52:00,
2013-04-09 14:57:00,85.1,66.6,29.94,SE,135,8.0,13.0,54,0.00,,,0.00,meteohub,2013-04-09 19:57:00,
2013-04-09 15:07:00,85.6,67.1,29.94,NNW,338,8.0,13.0,54,0.00,,,0.00,meteohub,2013-04-09 20:07:00,
2013-04-09 15:12:00,84.9,66.9,29.94,SE,135,8.0,20.0,55,0.00,,,0.00,meteohub,2013-04-09 20:12:00,
2013-04-09 15:22:00,84.9,65.8,29.94,SE,135,10.0,20.0,53,0.00,,,0.00,meteohub,2013-04-09 20:22:00,
2013-04-09 15:27:00,84.9,65.8,29.93,ESE,113,10.0,11.0,53,0.00,,,0.00,meteohub,2013-04-09 20:27:00,
2013-04-09 15:32:00,85.3,66.7,29.92,SE,135,4.0,13.0,54,0.00,,,0.00,meteohub,2013-04-09 20:32:00,
2013-04-09 15:42:00,84.7,66.2,29.93,SE,135,8.0,16.0,54,0.00,,,0.00,meteohub,2013-04-09 20:42:00,
2013-04-09 15:52:00,84.7,66.7,29.92,SE,135,13.0,16.0,55,0.00,,,0.00,meteohub,2013-04-09 20:52:00,
2013-04-09 16:02:00,84.7,66.7,29.92,East,90,7.0,14.0,55,0.00,,,0.00,meteohub,2013-04-09 21:02:00,
2013-04-09 16:07:00,84.7,66.7,29.92,East,90,7.0,14.0,55,0.00,,,0.00,meteohub,2013-04-09 21:07:00,
2013-04-09 16:12:00,85.1,67.1,29.91,SE,135,6.0,10.0,55,0.00,,,0.00,meteohub,2013-04-09 21:12:00,
2013-04-09 16:22:00,84.6,66.0,29.92,South,180,12.0,15.0,54,0.00,,,0.00,meteohub,2013-04-09 21:22:00,
2013-04-09 16:27:00,84.2,66.7,29.92,SE,135,6.0,15.0,56,0.00,,,0.00,meteohub,2013-04-09 21:27:00,
2013-04-09 16:32:00,84.7,67.3,29.92,East,90,9.0,12.0,56,0.00,,,0.00,meteohub,2013-04-09 21:32:00,
2013-04-09 16:42:00,83.7,66.7,29.93,SE,135,8.0,15.0,57,0.00,,,0.00,meteohub,2013-04-09 21:42:00,
2013-04-09 16:47:00,84.0,67.1,29.92,East,90,7.0,15.0,57,0.00,,,0.00,meteohub,2013-04-09 21:47:00,
2013-04-09 16:57:00,85.1,67.6,29.93,South,180,11.0,14.0,56,0.00,,,0.00,meteohub,2013-04-09 21:57:00,
2013-04-09 17:07:00,85.3,67.8,29.93,SE,135,15.0,15.0,56,0.00,,,0.00,meteohub,2013-04-09 22:07:00,
2013-04-09 17:12:00,84.9,67.5,29.93,South,180,5.0,15.0,56,0.00,,,0.00,meteohub,2013-04-09 22:12:00,
2013-04-09 17:22:00,84.9,66.9,29.94,SE,135,8.0,16.0,55,0.00,,,0.00,meteohub,2013-04-09 22:22:00,
2013-04-09 17:27:00,85.3,67.8,29.93,SE,135,5.0,17.0,56,0.00,,,0.00,meteohub,2013-04-09 22:27:00,
2013-04-09 17:32:00,84.6,67.1,29.94,SE,135,4.0,17.0,56,0.00,,,0.00,meteohub,2013-04-09 22:32:00,
2013-04-09 17:37:00,84.4,67.5,29.94,SE,135,8.0,17.0,57,0.00,,,0.00,meteohub,2013-04-09 22:37:00,
2013-04-09 17:42:00,84.2,67.8,29.94,East,90,8.0,15.0,58,0.00,,,0.00,meteohub,2013-04-09 22:42:00,
2013-04-09 17:47:00,83.5,67.6,29.94,SE,135,8.0,12.0,59,0.00,,,0.00,meteohub,2013-04-09 22:47:00,
2013-04-09 17:57:00,82.6,67.3,29.94,SE,135,6.0,12.0,60,0.00,,,0.00,meteohub,2013-04-09 22:57:00,
2013-04-09 18:02:00,82.4,67.6,29.94,SE,135,5.0,12.0,61,0.00,,,0.00,meteohub,2013-04-09 23:02:00,
2013-04-09 18:12:00,82.0,67.6,29.95,East,90,4.0,10.0,62,0.00,,,0.00,meteohub,2013-04-09 23:12:00,
2013-04-09 18:22:00,81.5,67.6,29.94,SE,135,8.0,10.0,63,0.00,,,0.00,meteohub,2013-04-09 23:22:00,
2013-04-09 18:27:00,81.5,67.6,29.94,SE,135,6.0,9.0,63,0.00,,,0.00,meteohub,2013-04-09 23:27:00,
2013-04-09 18:32:00,81.3,68.0,29.93,East,90,8.0,11.0,64,0.00,,,0.00,meteohub,2013-04-09 23:32:00,
2013-04-09 18:42:00,81.1,68.2,29.94,SE,135,3.0,15.0,65,0.00,,,0.00,meteohub,2013-04-09 23:42:00,
2013-04-09 18:47:00,81.0,68.0,29.94,East,90,8.0,15.0,65,0.00,,,0.00,meteohub,2013-04-09 23:47:00,
2013-04-09 18:57:00,80.8,68.0,29.94,SE,135,4.0,11.0,65,0.00,,,0.00,meteohub,2013-04-09 23:57:00,
2013-04-09 19:02:00,80.6,67.8,29.95,SE,135,4.0,9.0,65,0.00,,,0.00,meteohub,2013-04-10 00:02:00,
2013-04-09 19:07:00,80.6,67.8,29.95,SE,135,4.0,9.0,65,0.00,,,0.00,meteohub,2013-04-10 00:07:00,
2013-04-09 19:12:00,80.2,68.7,29.95,East,90,5.0,9.0,68,0.00,,,0.00,meteohub,2013-04-10 00:12:00,
2013-04-09 19:17:00,80.2,69.1,29.95,East,90,5.0,8.0,69,0.00,,,0.00,meteohub,2013-04-10 00:17:00,
2013-04-09 19:27:00,79.7,69.4,29.95,ENE,68,4.0,10.0,71,0.00,,,0.00,meteohub,2013-04-10 00:27:00,
2013-04-09 19:32:00,79.5,69.6,29.95,ENE,68,7.0,10.0,72,0.00,,,0.00,meteohub,2013-04-10 00:32:00,
2013-04-09 19:37:00,79.2,70.2,29.95,East,90,5.0,9.0,74,0.00,,,0.00,meteohub,2013-04-10 00:37:00,
2013-04-09 19:42:00,78.8,70.2,29.95,SE,135,7.0,11.0,75,0.00,,,0.00,meteohub,2013-04-10 00:42:00,
2013-04-09 19:52:00,78.6,70.3,29.95,East,90,3.0,11.0,76,0.00,,,0.00,meteohub,2013-04-10 00:52:00,
2013-04-09 19:57:00,78.4,70.7,29.95,East,90,4.0,11.0,77,0.00,,,0.00,meteohub,2013-04-10 00:57:00,
2013-04-09 20:07:00,78.1,70.7,29.95,ESE,113,13.0,13.0,78,0.00,,,0.00,meteohub,2013-04-10 01:07:00,
2013-04-09 20:12:00,77.9,70.9,29.95,East,90,8.0,14.0,79,0.00,,,0.00,meteohub,2013-04-10 01:12:00,
2013-04-09 20:17:00,77.9,70.9,29.94,SE,135,8.0,16.0,79,0.00,,,0.00,meteohub,2013-04-10 01:17:00,
2013-04-09 20:22:00,77.7,71.1,29.94,SE,135,7.0,16.0,80,0.00,,,0.00,meteohub,2013-04-10 01:22:00,
2013-04-09 20:27:00,77.7,71.1,29.95,East,90,6.0,16.0,80,0.00,,,0.00,meteohub,2013-04-10 01:27:00,
2013-04-09 20:37:00,77.5,71.2,29.96,SE,135,7.0,12.0,81,0.00,,,0.00,meteohub,2013-04-10 01:37:00,
2013-04-09 20:47:00,77.4,71.1,29.97,SE,135,11.0,12.0,81,0.00,,,0.00,meteohub,2013-04-10 01:47:00,
2013-04-09 20:52:00,77.4,71.1,29.98,SE,135,11.0,11.0,81,0.00,,,0.00,meteohub,2013-04-10 01:52:00,
2013-04-09 20:57:00,77.2,71.2,29.97,SE,135,6.0,11.0,82,0.00,,,0.00,meteohub,2013-04-10 01:57:00,
2013-04-09 21:02:00,77.2,71.2,29.97,SE,135,8.0,11.0,82,0.00,,,0.00,meteohub,2013-04-10 02:02:00,
2013-04-09 21:07:00,77.2,71.2,29.96,SE,135,8.0,17.0,82,0.00,,,0.00,meteohub,2013-04-10 02:07:00,
2013-04-09 21:17:00,77.0,71.1,29.95,SE,135,8.0,14.0,82,0.00,,,0.00,meteohub,2013-04-10 02:17:00,
2013-04-09 21:27:00,76.8,70.9,29.96,SE,135,4.0,17.0,82,0.00,,,0.00,meteohub,2013-04-10 02:27:00,
2013-04-09 21:32:00,76.8,70.5,29.96,South,180,5.0,17.0,81,0.00,,,0.00,meteohub,2013-04-10 02:32:00,
2013-04-09 21:37:00,76.6,70.7,29.96,East,90,11.0,13.0,82,0.00,,,0.00,meteohub,2013-04-10 02:37:00,
2013-04-09 21:42:00,76.6,70.7,29.97,SE,135,8.0,11.0,82,0.00,,,0.00,meteohub,2013-04-10 02:42:00,
2013-04-09 21:47:00,76.8,70.9,29.97,SE,135,11.0,16.0,82,0.00,,,0.00,meteohub,2013-04-10 02:47:00,
2013-04-09 21:52:00,76.8,70.9,29.96,SE,135,10.0,16.0,82,0.00,,,0.00,meteohub,2013-04-10 02:52:00,
2013-04-09 22:02:00,76.5,70.5,29.96,SE,135,8.0,13.0,82,0.00,,,0.00,meteohub,2013-04-10 03:02:00,
2013-04-09 22:12:00,76.3,70.3,29.96,South,180,6.0,12.0,82,0.00,,,0.00,meteohub,2013-04-10 03:12:00,
2013-04-09 22:17:00,76.3,70.0,29.95,SE,135,14.0,17.0,81,0.00,,,0.00,meteohub,2013-04-10 03:17:00,
2013-04-09 22:22:00,76.3,70.0,29.95,SE,135,11.0,17.0,81,0.00,,,0.00,meteohub,2013-04-10 03:22:00,
2013-04-09 22:32:00,76.3,70.0,29.95,SE,135,10.0,15.0,81,0.00,,,0.00,meteohub,2013-04-10 03:32:00,
2013-04-09 22:37:00,76.1,69.8,29.96,SE,135,6.0,15.0,81,0.00,,,0.00,meteohub,2013-04-10 03:37:00,
2013-04-09 22:47:00,76.1,69.8,29.96,SE,135,5.0,12.0,81,0.00,,,0.00,meteohub,2013-04-10 03:47:00,
2013-04-09 22:52:00,76.3,70.0,29.95,SE,135,10.0,10.0,81,0.00,,,0.00,meteohub,2013-04-10 03:52:00,
2013-04-09 22:57:00,76.1,69.8,29.96,SE,135,8.0,10.0,81,0.00,,,0.00,meteohub,2013-04-10 03:57:00,
2013-04-09 23:02:00,76.1,69.8,29.96,SSE,158,7.0,11.0,81,0.00,,,0.00,meteohub,2013-04-10 04:02:00,
2013-04-09 23:07:00,76.1,69.8,29.96,SSE,158,7.0,11.0,81,0.00,,,0.00,meteohub,2013-04-10 04:07:00,
2013-04-09 23:12:00,75.9,69.6,29.96,ESE,113,4.0,11.0,81,0.00,,,0.00,meteohub,2013-04-10 04:12:00,
2013-04-09 23:17:00,75.9,69.6,29.96,SE,135,4.0,8.0,81,0.00,,,0.00,meteohub,2013-04-10 04:17:00,
2013-04-09 23:22:00,75.9,69.6,29.96,South,180,4.0,8.0,81,0.00,,,0.00,meteohub,2013-04-10 04:22:00,
2013-04-09 23:27:00,75.9,69.6,29.96,East,90,8.0,8.0,81,0.00,,,0.00,meteohub,2013-04-10 04:27:00,
2013-04-09 23:32:00,76.1,69.8,29.96,SE,135,8.0,10.0,81,0.00,,,0.00,meteohub,2013-04-10 04:32:00,
2013-04-09 23:42:00,76.1,70.2,29.96,SE,135,4.0,10.0,82,0.00,,,0.00,meteohub,2013-04-10 04:42:00,
2013-04-09 23:47:00,76.1,70.2,29.96,ESE,113,6.0,9.0,82,0.00,,,0.00,meteohub,2013-04-10 04:47:00,
2013-04-09 23:52:00,76.1,70.2,29.96,SE,135,6.0,9.0,82,0.00,,,0.00,meteohub,2013-04-10 04:52:00,
2013-04-09 23:57:00,76.1,69.8,29.96,SE,135,8.0,15.0,81,0.00,,,0.00,meteohub,2013-04-10 04:57:00,